FREGAT DEB

Satellite information

Favourite Embed

Satellite Type and Status

DEBRISIN ORBIT

Key statistics

Satellite FREGAT DEB at a glance.

Uptime

5209

Days in orbit

Revolutions

≈ 11.0

Per day

Orbit

MEO

Medium Earth Orbit

Inclination

51.5

Latest

Satellite identification and parameters

Extended collection of information and parameters for FREGAT DEB.

Object identification

Identified? True

Debris? True

Object name: FREGAT DEB

International designator: 2011-037GV

Object number (NORAD): 45994

Object ID (CCSDS): 45994

Country: COMMONWEALTH OF INDEPENDENT STATES (CIS)

Current information (Y/N): Y

RCS size: SMALL

Orbital parameters

Period: 131.482 minutes

Inclination: 51.5117 deg

SMA: 8565.22 km

Apoapsis: 3639.541 km

Periapsis: 734.63 km

RAAN: 136.0372 deg

Eccentricy: 0.169576

Argument of periapsis: 223.0144 deg

Mean anomaly: 122.5146 deg

Mean motion: 10.95203817 rev/day

Mean motion (dot): 0.00000217 rev/day2

B* drag term: 0.00054998751 1/REarth

Two-line elements (TLE)

Creation date: Oct. 12, 2025, 10:10 a.m.

Reference frame: TEME

Reference center: EARTH

Epoch: Oct. 12, 2025, 12:10 a.m. UTC

TLE line 0: 0 FREGAT DEB

TLE line 1: 1 45994U 11037GV 25285.00700614 .00000217 00000-0 54999-3 0 9992

TLE line 2: 2 45994 51.5117 136.0372 1695760 223.0144 122.5146 10.95203817207999

Live tracking on map

Real-time ground track for satellite FREGAT DEB.

In-orbit conjunctions

A list of the most updated potential collisions computed for object FREGAT DEB.

Target Orbit TCA Probability of collision Miss distance Type
COSMOS 381 LEO 2025-02-18 09:13:28 0.0001390246 725.0 (m) PAYLOAD

Associated space launch

The RadioAstron is an international space Very Long Baseline Interferometry project led by the Astro Space Center of Lebedev Physical Institute in Moscow, Russia. The aim of the mission is to use the Spektr-R space telescope to conduct interferometer observations in conjunction with the global ground radio telescope network in order to obtain images, coordinates, motions and evolution of angular structure of different radio emitting objects in the Universe with the extraordinary high angular resolution.

FREGAT DEB was lifted into orbit during the mission ‘Zenit-3F | Spektr-R (RadioAstron)’, on board a Zenit 3F space rocket.

The launch took place on July 18, 2011, 2:31 a.m. from 45/1.

For more information about the launch, click the button.

Launch to space Zenit-3F | Spektr-R (RadioAstron)
Zenit-3F | Spektr-R (RadioAstron)

Agency: N/A

Status: Launch Successful

Launch date: July 18, 2011, 2:31 a.m. UTC

Rocket: Zenit 3F

Launch pad: 45/1

Location: Baikonur Cosmodrome, Republic of Kazakhstan

...

Latest news about this satellite

There are no fresh news available about this satellite. Check back as we update our databases every day.


Newsletter sign-up

Weekly statistics, charts and insights to help you stay on top of the space industry.